Regional Weather Roundup
Issued by NWS Newport/Morehead, NC

Current Version | Previous Version | Text Only | Print | Product List | Glossary On
Versions: 1 2 3 4 5 6 7 8 9 10 11 12 13 14 15 16 17 18 19 20 21 22 23 24 25 26 27 28 29 30 31 32 33 34 35 36 37 38 39 40 41 42 43 44 45 46 47 48 49 50
000
ASUS42 KMHX 040212
RWRMHX
WEATHER ROUNDUP FOR EASTERN NORTH CAROLINA
NATIONAL WEATHER SERVICE NEWPORT/MOREHEAD CITY NC
1000 PM EDT SUN MAY 03 2015

NOTE: "FAIR" INDICATES FEW OR NO CLOUDS BELOW 12,000 FEET
WITH NO SIGNIFICANT WEATHER AND/OR OBSTRUCTIONS TO VISIBILITY

NCZ015>017-031-032-045>047-102-103-040300-
NORTH COAST

CITY           SKY/WX    TMP DP  RH WIND       PRES   REMARKS
EDENTON        PTCLDY    67  54  63 S12       30.20R
ELIZABETH CITY PTCLDY    64  52  64 S7        30.20R
KITTY HAWK     PTCLDY    64  53  68 SW5       30.20R
MANTEO         PTCLDY    64  55  73 SW8       30.22R

$$

NCZ045>047-081-094-103-104-040300-
CENTRAL COAST

CITY           SKY/WX    TMP DP  RH WIND       PRES   REMARKS
FRISCO         CLEAR     59  57  93 W7        30.23R
SWANQUARTER      N/A     66 N/A N/A SW8       30.18S

$$

NCZ095-097-098-100-101-040300-
SOUTHERN COAST

CITY           SKY/WX    TMP DP  RH WIND       PRES   REMARKS
BEAUFORT       PTCLDY    63  59  87 SW3       30.23R
CEDAR ISLAND     N/A     63 N/A N/A S5        30.27R
JACKSONVILLE   CLEAR     59  52  77 S3        30.23R
PINEY ISLAND   CLOUDY   N/A N/A N/A S5        30.23R
WILMINGTON     CLEAR     63  52  67 S3        30.23R


$$

NCZ011>013-027>030-043-044-078>080-089-090>093-098-040300-
COASTAL PLAIN

CITY           SKY/WX    TMP DP  RH WIND       PRES   REMARKS
AHOSKIE        PTCLDY    56  52  86 CALM      30.20R
CLINTON        CLEAR     64  45  49 S3        30.22R
ELIZABETHTOWN  CLEAR     63  47  55 CALM      30.22R
GOLDSBORO      CLEAR     66  45  46 CALM      30.19R
GREENVILLE     CLEAR     63  50  63 S7        30.21R
HAVELOCK       CLOUDY    62  54  74 SW6       30.24R
KENANSVILLE    CLEAR     60  49  66 CALM      30.23R
KINSTON        CLEAR     64  46  52 S7        30.22R
NEW BERN       PTCLDY    63  48  58 CALM      30.24R
RICHLANDS      CLEAR     57  46  67 SW3       30.24R
ROCKY MOUNT    CLEAR     57  53  86 CALM      30.19R
WASHINGTON     CLEAR     65  45  48 S5        30.22R
WHITEVILLE     CLEAR     64  52  65 CALM      30.22R

$$

AMZ130-135-150-152-154-156-158-170-250-252-270-ANZ085-086-088-633-658-670-040300-
MARINE OBSERVATIONS

STATION/POSITION TIME  TEMP    WIND        PRES    WAVE   SWELL
                       AIR SEA DIR/SP/G            HT/PER HT/PER
                 (UTC) (F)     (DEG/KT/KT) (MB)    (FT/S) (FT/S)
CHESAPEAKE LIGHT 0100   65     190/ 21/ 21 1021.6
64 E VA BEACH    0150   64 63  220/ 10/ 12 1021.9    5/11   5/11
DUCK             0100   70 55  190/ 12/ 14 1020.9
2 E DUCK         0111      58                N/A     4/12   2/12
OREGON INLET     0100   64 65  210/ 10/ 10 1022.3
13E OREGON INLT  0200      54                N/A     4/11   2/11
HATTERAS CG      0100   65 65  230/  6/  8 1022.3
DIAMOND BUOY     0150   65 61  250/  6/  8 1023.5    5/ 8   5/ 8
CAPE LOOKOUT     0200   67     210/  5/  6 1023.6
BEAUFORT LAB     0100   64 64  200/  1/  2 1022.2
27 SE WRIGHTSVLE 0100   68 72  200/ 12/ 14   N/A
5 SE WRIGHTSVLE  0108   69 68  190/  8/ 10 1022.9
225 S CAPE HAT   0150   69 70   50/ 14/ 16 1024.3    8/13   8/13
41 SE CHARLESTON 0150   73 75  130/  8/ 10 1023.1    2/ 9   2/ 9

$$



USA.gov is the U.S. government's official web portal to all federal, state and local government web resources and services.